Latest Weather Observations for Viewbank

IDV60901

Issued at 1:45 pm EST Friday 22 August 2014 (issued every 10 minutes, with the page automatically refreshed every 10 minutes)

About weather observations | Map of Melbourne area stations | Latest observations for Melbourne area | Other Formats
Station Details ID: 086068 Name: VIEWBANK Lat: -37.74 Lon: 145.10 Height: 66.1 m
Data from the previous 72 hours. | See also: Recent months at Viewbank
Date/Time
EST
Tmp

°C
App
Tmp
°C
Dew
Point
°C
Rel
Hum
%
Delta-T

°C
Wind Press
QNH
hPa
Press
MSL
hPa
Rain
since
9 am
mm
Dir
 
Spd
km/h
Gust
km/h
Spd
kts
Gust
kts
22/01:30pm 17.7 15.4 4.6 42 6.2 NE 6 9 3 5 1028.8 1028.8 0.0
22/01:00pm 19.0 17.0 7.1 46 6.0 N 7 15 4 8 1029.1 1029.1 0.0
22/12:30pm 18.3 15.4 6.5 46 5.9 NNW 11 17 6 9 1029.5 1029.6 0.0
22/12:00pm 18.3 16.1 7.7 50 5.4 N 9 17 5 9 1030.1 1030.2 0.0
22/11:30am 17.4 15.4 6.3 48 5.5 ENE 6 17 3 9 1030.6 1030.7 0.0
22/11:00am 16.6 15.3 9.1 61 3.9 NE 6 9 3 5 1030.9 1031.0 0.0
22/10:30am 13.8 12.3 8.4 70 2.7 ENE 6 9 3 5 1031.2 1031.3 0.0
22/10:00am 11.4 10.4 8.8 84 1.3 NE 4 7 2 4 1031.3 1031.4 0.0
22/09:30am 9.9 8.3 8.7 92 0.6 ENE 7 9 4 5 1031.5 1031.6 0.0
22/09:00am 8.4 7.2 8.1 98 0.1 ENE 4 9 2 5 1031.5 1031.6 0.0
22/08:30am 7.3 5.5 7.2 99 0.0 ENE 6 9 3 5 1031.5 1031.6 0.0
22/08:00am 6.5 5.3 6.4 99 0.0 NE 2 6 1 3 1031.3 1031.4 0.0
22/07:30am 4.8 3.6 4.8 100 0.0 CALM 0 4 0 2 1031.0 1031.1 0.0
22/07:00am 4.2 2.5 4.2 100 0.0 NE 2 6 1 3 1030.6 1030.7 0.0
22/06:30am 3.7 2.3 3.7 100 0.0 CALM 0 6 0 3 1030.4 1030.5 0.0
22/06:00am 4.5 3.3 4.5 100 0.0 NNE 0 6 0 3 1030.3 1030.4 0.0
22/05:30am 4.7 3.5 4.7 100 0.0 CALM 0 0 0 0 1030.1 1030.2 0.0
22/05:00am 4.1 2.8 4.1 100 0.0 CALM 0 0 0 0 1029.9 1030.0 0.0
22/04:30am 5.0 3.9 5.0 100 0.0 CALM 0 6 0 3 1029.7 1029.8 0.0
22/04:00am 5.0 3.9 5.0 100 0.0 CALM 0 0 0 0 1029.6 1029.7 0.0
22/03:30am 5.1 4.0 5.0 99 0.0 CALM 0 4 0 2 1029.6 1029.7 0.0
22/03:00am 5.1 3.6 5.0 99 0.0 NE 2 7 1 4 1029.5 1029.6 0.0
22/02:30am 5.7 4.7 5.6 99 0.0 CALM 0 6 0 3 1029.7 1029.8 0.0
22/02:00am 5.7 4.3 5.6 99 0.0 NNE 2 6 1 3 1029.7 1029.8 0.0
22/01:30am 6.3 4.3 6.2 99 0.0 NNE 6 7 3 4 1029.7 1029.8 0.0
22/01:00am 6.5 4.5 6.4 99 0.0 NE 6 7 3 4 1029.7 1029.8 0.0
22/12:30am 7.0 5.9 6.9 99 0.0 NNE 2 6 1 3 1029.7 1029.8 0.0
22/12:00am 7.1 5.6 7.0 99 0.0 ENE 4 7 2 4 1029.7 1029.8 0.0
 
Date/Time
EST
Tmp

°C
App
Tmp
°C
Dew
Point
°C
Rel
Hum
%
Delta-T

°C
Wind Press
QNH
hPa
Press
MSL
hPa
Rain
since
9 am
mm
Dir
 
Spd
km/h
Gust
km/h
Spd
kts
Gust
kts
21/11:30pm 7.8 6.5 7.7 99 0.0 ENE 4 9 2 5 1029.7 1029.8 0.0
21/11:00pm 8.0 7.1 7.9 99 0.0 ENE 2 6 1 3 1029.7 1029.8 0.0
21/10:30pm 8.3 7.1 8.2 99 0.0 NNE 4 9 2 5 1029.7 1029.8 0.0
21/10:00pm 8.8 7.4 7.4 91 0.7 N 4 6 2 3 1029.6 1029.7 0.0
21/09:30pm 9.6 9.1 7.9 89 0.8 CALM 0 2 0 1 1029.5 1029.6 0.0
21/09:00pm 10.4 8.7 7.5 82 1.4 N 6 7 3 4 1029.4 1029.5 0.0
21/08:30pm 11.2 9.5 7.7 79 1.7 N 6 7 3 4 1029.1 1029.1 0.0
21/08:00pm 11.5 10.9 7.4 76 2.0 CALM 0 6 0 3 1028.9 1028.9 0.0
21/07:30pm 12.4 11.7 7.1 70 2.6 CALM 0 4 0 2 1028.7 1028.7 0.0
21/07:00pm 13.3 12.7 7.3 67 2.9 CALM 0 0 0 0 1028.5 1028.5 0.0
21/06:30pm 13.7 12.8 7.7 67 3.0 NNE 2 7 1 4 1028.1 1028.1 0.0
21/06:00pm 14.1 12.4 7.6 65 3.2 ENE 6 7 3 4 1027.8 1027.9 0.0
21/05:30pm 14.9 12.7 7.7 62 3.6 ENE 9 11 5 6 1027.5 1027.6 0.0
21/05:00pm 16.0 13.8 7.7 58 4.1 ENE 9 15 5 8 1027.2 1027.3 0.0
21/04:30pm 15.8 14.2 7.8 59 4.0 NE 6 13 3 7 1027.0 1027.1 0.0
21/04:00pm 16.2 14.3 7.4 56 4.4 NNE 7 13 4 7 1026.9 1027.0 0.0
21/03:30pm 16.0 13.6 7.0 55 4.5 NE 9 15 5 8 1026.9 1027.0 0.0
21/03:00pm 16.4 14.1 7.6 56 4.4 NE 9 17 5 9 1026.9 1027.0 0.0
21/02:30pm 15.8 13.5 7.3 57 4.2 NNE 9 17 5 9 1026.9 1027.0 0.0
21/02:00pm 16.1 13.3 7.1 55 4.4 NNE 11 22 6 12 1026.9 1027.0 0.0
21/01:30pm 16.0 13.5 8.0 59 4.0 NNE 11 17 6 9 1027.1 1027.2 0.0
21/01:00pm 15.3 13.3 7.3 59 3.9 NNE 7 19 4 10 1027.5 1027.6 0.0
21/12:30pm 15.0 14.2 9.6 70 2.8 SE 4 7 2 4 1027.9 1028.0 0.0
21/12:00pm 15.5 14.0 8.3 62 3.6 ENE 6 11 3 6 1028.4 1028.4 0.0
21/11:30am 13.9 13.0 9.1 73 2.4 SSE 4 13 2 7 1028.9 1028.9 0.0
21/11:00am 12.8 12.1 8.7 76 2.0 NNE 2 7 1 4 1029.2 1029.2 0.0
21/10:30am 11.4 10.3 8.6 83 1.4 ESE 4 7 2 4 1029.5 1029.6 0.0
21/10:00am 10.0 8.9 8.4 90 0.8 ENE 4 7 2 4 1029.6 1029.7 0.0
21/09:30am 8.8 7.8 8.7 99 0.0 E 4 7 2 4 1029.6 1029.7 0.0
21/09:00am 7.9 6.3 7.8 99 0.0 ENE 6 9 3 5 1029.7 1029.8 0.0
21/08:30am 6.7 5.9 6.7 100 0.0 CALM 0 6 0 3 1029.5 1029.6 0.0
21/08:00am 5.8 3.7 5.8 100 0.0 ENE 6 7 3 4 1029.2 1029.2 0.0
21/07:30am 5.4 4.0 5.4 100 0.0 NE 2 7 1 4 1028.8 1028.8 0.0
21/07:00am 5.1 2.6 5.0 99 0.0 ENE 7 11 4 6 1028.4 1028.4 0.0
21/06:30am 5.9 3.8 5.8 99 0.0 N 6 7 3 4 1028.3 1028.3 0.0
21/06:00am 6.2 5.3 6.1 99 0.0 CALM 0 6 0 3 1028.2 1028.2 0.0
21/05:30am 6.3 4.7 6.2 99 0.0 NNE 4 6 2 3 1028.1 1028.1 0.0
21/05:00am 6.3 4.7 6.2 99 0.0 N 4 6 2 3 1027.8 1027.9 0.0
21/04:30am 6.2 4.9 6.1 99 0.0 N 2 9 1 5 1027.8 1027.9 0.0
21/04:00am 6.5 4.9 6.4 99 0.0 W 4 7 2 4 1027.6 1027.7 0.0
21/03:30am 6.3 5.4 6.2 99 0.0 CALM 0 0 0 0 1027.5 1027.6 0.0
21/03:00am 7.6 6.8 6.5 93 0.5 CALM 0 0 0 0 1027.4 1027.5 0.0
21/02:30am 8.1 7.3 6.7 91 0.6 CALM 0 0 0 0 1027.5 1027.6 0.0
21/02:00am 8.3 6.3 6.1 86 1.0 S 6 7 3 4 1027.5 1027.6 0.0
21/01:30am 9.1 7.1 6.2 82 1.3 SSW 6 7 3 4 1027.4 1027.5 0.0
21/01:00am 9.5 7.3 6.2 80 1.5 S 7 9 4 5 1027.5 1027.6 0.0
21/12:30am 9.9 7.9 6.1 77 1.8 SSW 6 9 3 5 1027.6 1027.7 0.0
21/12:00am 9.9 7.8 5.9 76 1.8 SSW 6 9 3 5 1027.6 1027.7 0.0
 
Date/Time
EST
Tmp

°C
App
Tmp
°C
Dew
Point
°C
Rel
Hum
%
Delta-T

°C
Wind Press
QNH
hPa
Press
MSL
hPa
Rain
since
9 am
mm
Dir
 
Spd
km/h
Gust
km/h
Spd
kts
Gust
kts
20/11:30pm 10.0 7.4 6.0 76 1.9 S 9 13 5 7 1027.7 1027.8 0.0
20/11:00pm 10.1 8.0 5.9 75 1.9 S 6 9 3 5 1027.8 1027.9 0.0
20/10:30pm 10.2 7.5 5.6 73 2.1 S 9 17 5 9 1027.9 1028.0 0.0
20/10:00pm 10.2 8.0 5.4 72 2.2 SSE 6 9 3 5 1028.2 1028.2 0.0
20/09:30pm 10.5 8.3 5.5 71 2.3 SSE 6 13 3 7 1028.3 1028.3 0.0
20/09:00pm 10.6 8.3 5.6 71 2.3 S 7 11 4 6 1028.2 1028.2 0.0
20/08:30pm 10.6 8.5 5.8 72 2.2 S 6 7 3 4 1028.1 1028.1 0.0
20/08:00pm 10.7 8.9 5.5 70 2.4 SE 4 7 2 4 1028.1 1028.1 0.0
20/07:30pm 10.8 7.7 5.6 70 2.4 SSW 11 17 6 9 1027.7 1027.8 0.0
20/07:00pm 10.7 8.3 5.3 69 2.5 SW 7 11 4 6 1027.7 1027.8 0.0
20/06:30pm 11.0 8.1 4.5 64 2.9 SSW 9 17 5 9 1027.7 1027.8 0.0
20/06:00pm 11.0 8.1 4.7 65 2.8 SSW 9 15 5 8 1027.3 1027.4 0.0
20/05:30pm 11.2 7.1 4.4 63 3.1 SSW 15 22 8 12 1026.9 1027.0 0.0
20/05:00pm 11.4 7.8 5.1 65 2.9 SSW 13 19 7 10 1026.7 1026.8 0.0
20/04:30pm 11.5 8.1 5.8 68 2.7 SSW 13 20 7 11 1026.5 1026.6 0.0
20/04:00pm 11.6 8.2 5.9 68 2.6 SSW 13 19 7 10 1026.4 1026.5 0.0
20/03:30pm 12.4 9.2 6.9 69 2.6 SW 13 20 7 11 1026.2 1026.3 0.0
20/03:00pm 12.2 8.5 6.3 67 2.8 SW 15 24 8 13 1026.0 1026.1 0.0
20/02:30pm 12.2 9.1 5.6 64 3.1 SSW 11 17 6 9 1025.9 1026.0 0.0
20/02:00pm 12.3 9.2 5.5 63 3.2 SSW 11 15 6 8 1025.9 1026.0 0.0
20/01:30pm 12.4 9.5 4.9 60 3.5 S 9 13 5 7 1026.0 1026.1 0.0
20/01:00pm 13.1 10.3 5.0 58 3.7 S 9 17 5 9 1026.2 1026.3 0.0
20/12:30pm 12.6 9.2 4.1 56 3.9 ESE 11 19 6 10 1026.5 1026.6 0.0
20/12:00pm 12.4 9.9 4.9 60 3.4 SSE 7 15 4 8 1026.8 1026.9 0.0
20/11:30am 11.9 9.4 4.9 62 3.2 SE 7 17 4 9 1027.1 1027.2 0.0
20/11:00am 11.9 9.0 4.9 62 3.2 ESE 9 17 5 9 1027.2 1027.3 0.0
20/10:30am 11.4 8.8 6.1 70 2.5 S 9 13 5 7 1027.3 1027.4 0.0
20/10:00am 11.4 8.8 5.9 69 2.6 SSE 9 15 5 8 1027.3 1027.4 0.0
20/09:30am 11.0 8.7 4.9 66 2.8 S 6 11 3 6 1027.1 1027.2 0.0
20/09:00am 10.1 8.0 3.8 65 2.8 S 4 6 2 3 1027.0 1027.1 0.0
20/08:30am 9.3 8.1 4.7 73 2.1 CALM 0 0 0 0 1026.8 1026.9 0.0
20/08:00am 8.8 7.5 4.2 73 2.0 CALM 0 0 0 0 1026.6 1026.7 0.0
20/07:30am 8.6 7.1 3.2 69 2.3 CALM 0 0 0 0 1026.3 1026.4 0.0
20/07:00am 8.4 7.0 3.3 70 2.2 CALM 0 0 0 0 1025.9 1026.0 0.0
20/06:30am 8.4 6.9 3.1 69 2.3 CALM 0 0 0 0 1025.7 1025.8 0.0
20/06:00am 8.6 6.4 3.2 69 2.3 E 4 7 2 4 1025.5 1025.6 0.0
20/05:30am 8.6 5.8 3.2 69 2.3 ENE 7 9 4 5 1025.3 1025.4 0.0
20/05:00am 8.8 6.2 3.0 67 2.5 SE 6 9 3 5 1025.4 1025.5 0.0
20/04:30am 8.9 6.7 3.3 68 2.4 SSE 4 7 2 4 1025.4 1025.5 0.0
20/04:00am 9.0 6.4 3.2 67 2.5 S 6 11 3 6 1025.4 1025.5 0.0
20/03:30am 9.1 6.5 3.1 66 2.6 S 6 13 3 7 1025.3 1025.4 0.0
20/03:00am 9.2 7.0 3.2 66 2.6 SE 4 9 2 5 1025.2 1025.3 0.0
20/02:30am 9.5 6.7 3.0 64 2.8 S 7 13 4 7 1025.4 1025.5 0.0
20/02:00am 9.4 6.8 4.2 70 2.3 S 7 11 4 6 1025.5 1025.6 0.0
20/01:30am 9.4 7.0 4.4 71 2.2 S 6 9 3 5 1025.7 1025.8 0.0
20/01:00am 9.3 7.4 4.9 74 2.0 S 4 9 2 5 1025.6 1025.7 0.0
20/12:30am 9.4 7.9 5.0 74 2.0 SSE 2 7 1 4 1025.6 1025.7 0.0
20/12:00am 9.5 7.6 4.7 72 2.1 SE 4 7 2 4 1025.6 1025.7 0.0
 
Date/Time
EST
Tmp

°C
App
Tmp
°C
Dew
Point
°C
Rel
Hum
%
Delta-T

°C
Wind Press
QNH
hPa
Press
MSL
hPa
Rain
since
9 am
mm
Dir
 
Spd
km/h
Gust
km/h
Spd
kts
Gust
kts
19/11:30pm 9.6 8.0 4.4 70 2.3 SE 2 7 1 4 1025.8 1025.9 0.0
19/11:00pm 9.8 7.2 4.2 68 2.5 S 7 13 4 7 1025.8 1025.9 0.0
19/10:30pm 9.9 6.9 4.3 68 2.5 S 9 13 5 7 1025.8 1025.9 0.0
19/10:00pm 9.9 7.1 5.1 72 2.2 S 9 17 5 9 1025.8 1025.9 0.0
19/09:30pm 10.1 7.7 5.1 71 2.3 S 7 13 4 7 1025.6 1025.7 0.0
19/09:00pm 10.2 7.4 5.0 70 2.3 S 9 17 5 9 1025.4 1025.5 0.0
19/08:30pm 10.3 7.5 5.3 71 2.3 S 9 19 5 10 1025.4 1025.5 0.0
19/08:00pm 10.4 7.9 5.0 69 2.4 S 7 19 4 10 1025.2 1025.3 0.0
19/07:30pm 10.7 7.9 5.0 68 2.6 S 9 15 5 8 1025.2 1025.3 0.0
19/07:00pm 10.6 7.5 5.6 71 2.3 S 11 17 6 9 1024.9 1025.0 0.0
19/06:30pm 10.8 7.6 5.3 69 2.5 S 11 19 6 10 1024.7 1024.8 0.0
19/06:00pm 10.9 8.2 5.7 70 2.4 S 9 17 5 9 1024.5 1024.6 0.0
19/05:30pm 11.2 8.5 5.5 68 2.6 S 9 19 5 10 1024.2 1024.3 0.0
19/05:00pm 11.4 8.3 5.7 68 2.6 S 11 20 6 11 1024.0 1024.1 0.0
19/04:30pm 11.5 8.4 5.4 66 2.8 S 11 20 6 11 1024.0 1024.1 0.0
19/04:00pm 11.7 8.2 5.6 66 2.8 SSE 13 20 7 11 1023.7 1023.8 0.0
19/03:30pm 11.9 9.3 6.0 67 2.8 SSE 9 17 5 9 1023.6 1023.7 0.0
19/03:00pm 12.0 8.2 5.9 66 2.8 S 15 24 8 13 1023.5 1023.6 0.0
19/02:30pm 12.1 8.8 6.2 67 2.8 S 13 24 7 13 1023.5 1023.6 0.0
19/02:00pm 12.4 9.7 7.3 71 2.5 S 11 24 6 13 1023.5 1023.6 0.0

Latest Capital City Observations: Canberra | Sydney | Melbourne | Brisbane | Adelaide | Perth | Hobart | Darwin

Other Formats:

Comma delimited format used in spreadsheet applications
http://www.bom.gov.au/fwo/IDV60901/IDV60901.95874.axf

JavaScript Object Notation format (JSON) in row-major order
http://www.bom.gov.au/fwo/IDV60901/IDV60901.95874.json